FENGYUN 1C DEB, 46440

Orbit data source: Space-Track

FENGYUN 1C DEB, 46440 is space debris in SSO originally from a launch on Mon, 10 May 1999 UTC launched from the Taiyaun Space Center, China (TSC). Fengyun 1C debris stems from the Chinese weather satellite Fengyun-1C, which was intentionally destroyed by a Chinese anti-satellite missile in 2007. This event dramatically increased the amount of space debris, with thousands of trackable fragments posing hazards to satellites and human spaceflight. The Fengyun 1C debris cloud has become a focal point in discussions about space sustainability and the need for international regulations to prevent the creation of new debris.

Loading next visibility...
Identifier
46440, 1999-025EYV
Orbit
SSO
Country
Flag of CNCN / PRC
Related business
Manufacturer
Unknown
Mission
Spacecraft
Bus & Motor
Unknown
Mass
Unknown
Launch date (UTC)
1999-05-10 (27 years ago)
Launch vehicle
Unknown
Launch site
Taiyaun Space Center, China (TSC)
Object type
Payload
Rocket body
Debris
Shape & HBR
Unknown shape, 0.1 m
Radar Cross Section
Small (<0.1 m²)

Expand to show TLE details & history
Last TLE update: 5 days ago

TLE from 5 days ago
0 FENGYUN 1C DEB
1 46440U 99025EYV 26162.90783659  .00000449  00000-0  19704-3 0  9998
2 46440  98.5728 189.7228 0174191 331.2481 150.7189 14.20610563649414
Epoch: 2026-06-11T21:47Z
TLE epoch observation values (Epoch: 2026-06-11T21:47:17.081Z)
Latitude
56.19728°
Longitude
155.60047°
Altitude
942.581 km
Speed
7.329 km/s
True Right ascension
01h 30m 39s
True Declination
56° 02' 32"
Sunlit
Object was in daylight at epoch
Visualization orbit readout
Latitude
Unknown
Longitude
Unknown
Altitude
Unknown
Speed
Unknown
Apparent Right ascension
Unknown
Apparent Declination
Unknown
Sunlit
N/A
Visualization observer readout
Local Sidereal Time
01:40:32
Azimuth
Unknown
Elevation
Unknown
Doppler factor
Unknown
Orbital elements
Apogee altitude
945.831 km
Perigee altitude
695.046 km
Semi-major axis
7,198.576 km
Eccentricity
0.01742
Inclination
98.5728°
RAAN
189.7228°
Arg. of periapsis
331.2481°
True anomaly
151.67692°
Mean anomaly
150.7189°
Eccentric anomaly
151.19971°
Mean motion
3.55364 °/min
Orbital period
101.3 mins
BSTAR
0.00019704
Loading maneuver chart data...
Computing Atmospheric mass density...

Documentation

Showing up to 5 results
|